www.pogodaiklimat.ru

Погода и климат >> Архив погоды >> Россия >> Астраханская область >> Черный Яр


ПОГОДА в Черный Яр

  • Прогноз погоды в Черный Яр
  • Монитор погоды в Черный Яр

АРХИВ ПОГОДЫ в Черный Яр

Время (UTC), дата Ветер
(напр.,м/с)
 
Видим.   Явления Облачность Т
(С)
Тd
(С)
f
(%)
Тe
(С)
Тes
(С)
Комфортность P
(гПа)
Po
(гПа)
Тmin
(С)
Tmax
(С)
R
(мм)
R24
(мм)
S
(см)
00 16.08 ЮВ 3 10 км 10/0
[Ac trans]
+22.0 +9.7 46 +24 +24 комфорт 1013.8 1013.2
03 16.08 В 3 10 км ясно +19.4 +10.5 56 +21 +21 комфорт 1014.0 1013.3 +19.3
06 16.08 В 3 10 км ясно +26.3 +10.8 38 +27 +35 жарко 1014.5 1013.9
09 16.08 ЮВ 4 10 км 5/0
[Ci fib]
+31.2 +9.0 25 +30 +39 жарко 1012.8 1012.2
12 16.08 В 4
{10}
10 км 5/0
[Ci fib]
+32.7 +9.5 24 +32 +37 жарко 1010.8 1010.2
15 16.08 В 4 10 км 4/0
[Ci fib]
+31.3 +9.9 27 +31 +31 жарко 1009.8 1009.2 +33.0
18 16.08 ЮВ 2 10 км 3/0
[Ci fib]
+25.8 +12.2 43 +27 +27 жарко 1011.7 1011.0
21 16.08 ЮВ 2 10 км 4/0
[Ci fib]
+22.8 +12.5 52 +26 +26 жарко 1011.9 1011.3
00 17.08 В 2 10 км 8/0
[Ci fib]
+20.0 +12.6 62 +22 +22 комфорт 1011.4 1010.8
03 17.08 В 2 10 км 8/0
[Ac trans Ci fib]
+20.1 +9.9 52 +22 +23 комфорт 1010.8 1010.2 +19.2
06 17.08 В 3 10 км 10/0
[Ac cast Ci fib]
+25.9 +12.2 43 +27 +32 жарко 1010.9 1010.3
09 17.08 В 5-10
{10}
10 км 10/0
[Ac cast Ci]
+33.4 +8.4 21 +32 +36 жарко 1010.3 1009.7
12 17.08 ЮВ 2
{11}
10 км 10/0
[As op]
+32.1 +8.7 23 +31 +33 жарко 1009.8 1009.2
15 17.08 ЮВ 3 10 км 10/1 600 м
[Cb cap Ac cuf]
+29.1 +10.6 32 +29 +30 жарко 1010.6 1010.0 +33.7
18 17.08 ЮВ 2 10 км 10/1 600 м
[Cb cap Ac cuf]
+26.5 +10.0 35 +27 +27 жарко 1011.3 1010.7
21 17.08 ЮВ 2 10 км 10/3 600 м
[Cb cap Ac cuf]
+25.0 +12.3 45 +27 +27 жарко 1011.7 1011.1
00 18.08 В 2 10 км 10/3 600 м
[Cb cap Ac cuf]
+22.1 +13.4 58 +25 +25 комфорт 1012.0 1011.4
03 18.08 В 1 10 км 10/3 600 м
[Cb cap Ac cuf]
+21.1 +13.6 62 +24 +24 комфорт 1011.8 1011.1 +21.0
06 18.08 В 3 10 км 8/0
[Ac cast]
+25.8 +12.6 44 +28 +31 жарко 1012.1 1011.4
09 18.08 ЮВ 5-11
{11}
10 км 5/0
[Ac cast]
+34.1 +4.4 16 +32 +37 жарко 1011.6 1011.0
12 18.08 ЮВ 4-10
{11}
10 км пыльный позёмок 3/0
[Ci fib]
+36.0 +5.2 15 +33 +39 жарко 1011.2 1010.6
15 18.08 В 3
{11}
10 км 10/0
[Ac cast Ci fib]
+32.6 +7.2 21 +31 +31 жарко 1012.2 1011.6 +36.2
18 18.08 ЮВ 3 10 км 10/0
[Ac cast]
+28.4 +8.7 29 +28 +28 жарко 1014.0 1013.4
21 18.08 В 1 10 км гроза без осадков 10/3 600 м
[Cb calv Ac cuf]
+24.5 +11.4 44 +26 +26 жарко 1014.1 1013.5
00 19.08 СВ 1 10 км {гроза} 4/0
[Ac cast]
+20.7 +10.1 51 +24 +24 комфорт 1013.8 1013.1
03 19.08 В 3 10 км 3/0
[Ac cast]
+21.7 +9.8 47 +23 +24 комфорт 1014.7 1014.1 +19.6
06 19.08 В 2 10 км 8/0
[Ac trans]
+25.4 +11.7 42 +27 +31 жарко 1016.1 1015.5
09 19.08 В 3 10 км 8/0
[Ac trans Ci fib]
+35.1 +8.0 19 +33 +42 жарко 1015.0 1014.4
12 19.08 ЮВ 6-11
{11}
10 км 8/0
[Ac cast Ci]
+38.0 +3.5 12 +35 +37 очень
жарко
1014.6 1013.9
15 19.08 ЮВ 2
{11}
10 км 4/0
[Ci fib]
+34.9 +5.3 16 +32 +33 жарко 1015.2 1014.5 +38.4
18 19.08 ЮВ 3 10 км 4/0
[Ac cast]
+28.9 +10.1 31 +29 +29 жарко 1016.8 1016.2
21 19.08 ЮВ 3 10 км 3/0
[Ac cast]
+25.6 +13.1 46 +28 +28 жарко 1017.6 1017.0
00 20.08 В 3 10 км 3/0
[Ac cast]
+23.0 +10.1 44 +25 +25 комфорт 1017.6 1017.0
03 20.08 В 1 10 км 3/0
[Ac cast]
+20.4 +13.7 65 +24 +24 комфорт 1018.6 1017.9 +18.1
06 20.08 В 2 10 км 3/0
[Ac cast]
+30.5 +10.1 28 +30 +37 жарко 1019.0 1018.4
09 20.08 ЮВ 2 10 км 3/0
[Ac cast]
+35.8 +8.2 18 +34 +45 очень
жарко
1018.2 1017.6
12 20.08 ЮВ 3 10 км 8/0
[Ac cast]
+37.0 +1.9 11 +34 +36 очень
жарко
1016.9 1016.3
15 20.08 штиль 0 10 км 8/0
[Ac trans Ci fib]
+36.1 +4.0 14 +33 +34 жарко 1016.5 1015.9 +38.3
18 20.08 Ю 2 10 км 3/0
[Ac trans]
+29.7 +6.6 23 +28 +28 жарко 1017.9 1017.3
21 20.08 Ю 1 10 км 3/0
[Ac trans]
+23.8 +6.2 32 +24 +24 комфорт 1017.8 1017.2
00 21.08 штиль 0 10 км 1/0
[Ac cast]
+21.0 +9.6 48 +22 +22 комфорт 1017.7 1017.0
03 21.08 С 1 10 км 1/0
[Ac cast]
+20.9 +7.8 43 +23 +24 комфорт 1018.0 1017.4 +18.9
06 21.08 СЗ 1 10 км 1/0
[Ci fib]
+31.1 +7.5 23 +30 +40 жарко 1017.9 1017.3
09 21.08 СВ 2 10 км ясно +35.9 +3.6 13 +33 +47 жарко 1017.0 1016.4
12 21.08 СВ 2 10 км ясно +37.2 +2.2 11 +34 +42 очень
жарко
1015.7 1015.1
15 21.08 Ю 1 10 км ясно +36.1 +1.2 11 +33 +33 жарко 1014.7 1014.1 +37.5
18 21.08 С 2 10 км ясно +29.3 +10.0 30 +29 +29 жарко 1015.4 1014.8
21 21.08 С 3 10 км ясно +27.0 +11.4 38 +28 +28 жарко 1015.4 1014.8
00 22.08 С 4 10 км ясно +24.4 +12.7 48 +26 +26 жарко 1015.0 1014.4
03 22.08 СВ 3 10 км ясно +22.7 +12.8 54 +26 +26 жарко 1015.3 1014.7 +22.3
06 22.08 СВ 4 10 км ясно +29.4 +11.7 34 +30 +36 жарко 1015.6 1015.0
09 22.08 СВ 5
{10}
10 км ясно +34.9 +11.0 23 +34 +42 очень
жарко
1014.9 1014.3
12 22.08 СВ 5 10 км ясно +37.2 +8.8 18 +35 +40 очень
жарко
1014.1 1013.5
15 22.08 СВ 3 50 км ясно +35.2 +8.6 20 +34 +34 очень
жарко
1013.7 1013.1 +37.4
18 22.08 СВ 4 10 км ясно +30.3 +9.4 27 +30 +30 жарко 1014.9 1014.3
21 22.08 СВ 3 10 км ясно +27.1 +9.8 34 +28 +28 жарко 1015.4 1014.8

 

Местоположение метеостанции Черный Яр (Астраханская область, Россия): широта 48.07 долгота 46.12 высота над уровнем моря 5 м.

В архиве по умолчанию представлена погода в Черный Яр за последнюю неделю. Архивные данные за месяц целиком и за предыдущие месяцы, начиная с января 2011 года, Вы можете получить, выбрав интересующий диапазон дат из раскрывающегося списка и нажав кнопку "Ввод!".


*Определитесь, кто Вы:
робот инопланетянин человек

Внимание! Время в таблицах - всемирное. Для получения местного времени необходимо прибавить поправку, которая равна 4 ч.

Смотрите также архив погоды в соседних городах и на ближайших метеорологических станциях:

Погода в Верхнем Баскунчаке (Астраханская область, Россия) (48 км)
Погода в Юсте (Калмыкия, Россия) (106 км)
Погода в Малых Дербетах (Калмыкия, Россия) (107 км)
Погода в Харабали (Астраханская область, Россия) (113 км)
Погода в Урде (Западно-Казахстанская область, Казахстан) (124 км)
Погода в Эльтоне (Волгоградская область, Россия) (130 км)
Погода в Волгограде город (Волгоградская область, Россия) (140 км)
Погода в Кетченерах (Калмыкия, Россия) (143 км)
Погода в Волгограде (Волгоградская область, Россия) (151 км)
Погода в Жанибеке (Западно-Казахстанская область, Казахстан) (156 км)

Пояснения к столбцам:

Ветер - указаны скорость ветра в м/с - средняя за 10 мин, порывы в срок и между сроками (в фигурных скобках) и направление, откуда дует ветер: С - северный, СВ - северо-восточный, В - восточный, ЮВ - юго-восточный, Ю - южный, ЮЗ - юго-западный, З - западный, СЗ - северо-западный.
Видимость - горизонтальная дальность видимости в метрах или километрах. При видимости от 1 до 10 км при отсутствии осадков обычно наблюдается дымка, при ухудшении видимости до 1 км и менее - туман. В сухую погоду видимость может ухудшаться дымом, пылью или мглою.
Явления - указаны атмосферные явления, наблюдавшиеся в срок или в последний час перед сроком; фигурными скобками обозначены явления, наблюдавшиеся между сроками (за 1-3 часа до срока); квадратными скобками обозначены град или гололедные отложения с указанием их диаметра в мм.
Облачность - указаны через наклонную черту общая и нижняя облачность в баллах и высота нижней границы облаков в метрах; квадратными скобками обозначены формы облаков: Ci - перистые, Cs - перисто-слоистые, Cc - перисто-кучевые, Ac - высококучевые, As - высокослоистые, Sc - слоисто-кучевые, Ns - слоисто-дождевые, Cu - кучевые, Cb - кучево-дождевые. Подробнее классификацию облаков см. в Атласе облаков (PDF).
T - Температура воздуха - температура, измеренная на высоте 2 м над землей.
Td - Температура точки росы - температура, при понижении до которой содержащийся в воздухе водяной пар достигнет насыщения.
f - Относительная влажность воздуха - влажноcть воздуха, измеренная на высоте 2 м над землей.
Te - Эффективная температура - температура, которую ощущает одетый по сезону человек в тени. Характеристика душности погоды. При расчете учитывается влияние влажности воздуха и скорости ветра на теплоощущения человека.
Tes - Эффективная температура на солнце - температура, которую ощущает человек, с поправкой на солнечный нагрев. Характеристика знойности погоды. Зависит от высоты солнца над горизонтом, облачности и скорости ветра. Ночью, в пасмурную погоду, а также при ветре 12 м/с и более поправка равна нулю.
P - Атмосферное давление - приведенное к уровню моря атмосферное давление.
Po - Атмосферное давление - измеренное на уровне метеостанции атмосферное давление.
Tmin - Минимальная температура - минимум температуры воздуха на высоте 2 м над землей.
Tmax - Максимальная температура - максимум температуры воздуха на высоте 2 м над землей.
R - Количество осадков - Количество выпавших осадков за период времени, мм. При наведении курсора мыши на число - период времени, за который выпало указанное количество осадков.
R24 - Количество осадков - Количество выпавших осадков за 24 часа, мм.
S - Снежный покров - Высота снежного покрова, см. При наведении курсора мыши на число - состояние снежного покрова и степень покрытия местности в баллах.